2023/08/01 00:00:00,78.5,20.5
2023/08/01 00:10:00,78.6,20.5
2023/08/01 00:20:00,78.6,20.4
2023/08/01 00:30:00,78.6,20.7
2023/08/01 00:40:00,78.6,20.6
2023/08/01 00:50:00,78.6,20.4
2023/08/01 01:00:00,78.6,20.4
2023/08/01 01:10:00,78.6,20.4
2023/08/01 01:20:00,78.6,20.4
2023/08/01 01:30:00,78.6,20.4
2023/08/01 01:40:00,78.6,20.3
2023/08/01 01:50:00,78.6,20.2
2023/08/01 02:00:00,78.6,20.2
2023/08/01 02:10:00,78.6,20.0
2023/08/01 02:20:00,78.6,20.0
2023/08/01 02:30:00,78.6,19.9
2023/08/01 02:40:00,78.6,19.9
2023/08/01 02:50:00,78.7,19.7
2023/08/01 03:00:00,78.7,19.6
2023/08/01 03:10:00,78.7,19.5
2023/08/01 03:20:00,78.6,19.4
2023/08/01 03:30:00,78.6,19.3
2023/08/01 03:40:00,78.7,19.2
2023/08/01 03:50:00,78.7,19.3
2023/08/01 04:00:00,78.8,19.2
2023/08/01 04:10:00,78.8,19.0
2023/08/01 04:20:00,78.9,19.0
2023/08/01 04:30:00,78.9,19.0
2023/08/01 04:40:00,79.1,19.1
2023/08/01 04:50:00,79.1,18.9
2023/08/01 05:00:00,79.1,18.8
2023/08/01 05:10:00,79.2,18.7
2023/08/01 05:20:00,79.3,18.8
2023/08/01 05:30:00,79.3,18.9
2023/08/01 05:40:00,79.3,18.8
2023/08/01 05:50:00,79.3,18.9
2023/08/01 06:00:00,79.3,19.0
2023/08/01 06:10:00,79.3,18.9
2023/08/01 06:20:00,79.4,19.1
2023/08/01 06:30:00,79.8,18.9
2023/08/01 06:40:00,79.9,19.4
2023/08/01 06:50:00,79.9,19.5
2023/08/01 07:00:00,80.0,19.7
2023/08/01 07:10:00,80.2,20.3
2023/08/01 07:20:00,80.3,20.4
2023/08/01 07:30:00,80.3,20.7
2023/08/01 07:40:00,80.4,21.2
2023/08/01 07:50:00,23.6,26.6
2023/08/01 08:00:00, 0.0,28.0
2023/08/01 08:10:00, 0.0,28.7
2023/08/01 08:20:00, 0.0,29.5
2023/08/01 08:30:00, 0.0,29.6
2023/08/01 08:40:00, 0.0,29.8
2023/08/01 08:50:00, 0.0,29.6
2023/08/01 09:00:00,---,28.7
2023/08/01 09:10:00,83.2,27.4
2023/08/01 09:20:00,---,27.6
2023/08/01 09:30:00, 0.0,28.1
2023/08/01 09:40:00,---,28.7
2023/08/01 09:50:00,---,29.2
2023/08/01 10:00:00,82.8,29.8
2023/08/01 10:10:00,82.9,29.9
2023/08/01 10:20:00,83.1,30.7
2023/08/01 10:30:00,82.7,30.4
2023/08/01 10:40:00,82.9,31.0
2023/08/01 10:50:00,82.8,30.0
2023/08/01 11:00:00,82.9,30.8
2023/08/01 11:10:00,83.5,31.1
2023/08/01 11:20:00,82.2,30.4
2023/08/01 11:30:00,81.9,30.9
2023/08/01 11:40:00,81.0,29.7
2023/08/01 11:50:00,82.0,31.2
2023/08/01 12:00:00,82.4,31.5
2023/08/01 12:10:00,82.5,33.6
2023/08/01 12:20:00,82.9,33.8
2023/08/01 12:30:00,---,33.8
2023/08/01 12:40:00,83.1,34.1
2023/08/01 12:50:00,83.1,34.0
2023/08/01 13:00:00,---,35.2
2023/08/01 13:10:00, 0.0,34.4
2023/08/01 13:20:00, 0.0,34.2
2023/08/01 13:30:00,---,32.5
2023/08/01 13:40:00, 0.0,31.9
2023/08/01 13:50:00,82.4,31.1
2023/08/01 14:00:00,83.7,33.3
2023/08/01 14:10:00,82.8,32.2
2023/08/01 14:20:00,82.4,31.2
2023/08/01 14:30:00,81.9,29.9
2023/08/01 14:40:00,57.6,31.4
2023/08/01 14:50:00,83.7,33.8
2023/08/01 15:00:00,83.4,34.3
2023/08/01 15:10:00,---,34.2
2023/08/01 15:20:00,---,31.9
2023/08/01 15:30:00,82.4,30.5
2023/08/01 15:40:00,82.1,30.1
2023/08/01 15:50:00,81.7,29.2
2023/08/01 16:00:00,81.7,28.4
2023/08/01 16:10:00,82.2,29.7
2023/08/01 16:20:00,81.8,30.0
2023/08/01 16:30:00,81.7,29.9
2023/08/01 16:40:00,81.5,28.9
2023/08/01 16:50:00,81.4,28.2
2023/08/01 17:00:00,81.5,27.9
2023/08/01 17:10:00,81.4,27.6
2023/08/01 17:20:00,81.4,26.9
2023/08/01 17:30:00,81.4,26.5
2023/08/01 17:40:00,81.4,26.1
2023/08/01 17:50:00,81.5,25.8
2023/08/01 18:00:00,81.5,25.4
2023/08/01 18:10:00,81.5,25.1
2023/08/01 18:20:00,81.5,24.9
2023/08/01 18:30:00,81.5,24.7
2023/08/01 18:40:00,81.5,24.4
2023/08/01 18:50:00,81.5,24.2
2023/08/01 19:00:00,81.5,24.0
2023/08/01 19:10:00,81.4,23.7
2023/08/01 19:20:00,81.3,23.5
2023/08/01 19:30:00,81.2,23.1
2023/08/01 19:40:00,80.8,23.0
2023/08/01 19:50:00,80.0,22.7
2023/08/01 20:00:00,79.7,22.6
2023/08/01 20:10:00,---,22.5
2023/08/01 20:20:00,---,22.7
2023/08/01 20:30:00,---,22.2
2023/08/01 20:40:00, 0.1,21.9
2023/08/01 20:50:00, 0.0,21.8
2023/08/01 21:00:00, 0.0,21.6
2023/08/01 21:10:00, 0.0,21.5
2023/08/01 21:20:00, 0.0,21.3
2023/08/01 21:30:00, 0.0,21.2
2023/08/01 21:40:00, 0.0,21.0
2023/08/01 21:50:00, 0.0,21.1
2023/08/01 22:00:00, 0.0,21.0
2023/08/01 22:10:00, 0.0,20.9
2023/08/01 22:20:00, 0.0,20.8
2023/08/01 22:30:00, 0.0,20.8
2023/08/01 22:40:00, 0.0,20.6
2023/08/01 22:50:00, 0.0,20.4
2023/08/01 23:00:00, 0.0,20.4
2023/08/01 23:10:00,40.1,20.3
2023/08/01 23:20:00,80.6,20.4
2023/08/01 23:30:00,80.6,20.4
2023/08/01 23:40:00,80.7,20.5
2023/08/01 23:50:00,80.7,20.2
